When you browse on this site, cookies collect data to enhance your experience and personalize the content and advertising you see.
Visit our Privacy Policy to learn more. By continuing to use the site, you agree to this use of cookies and data.
  • In Portugal
  • List of Countries
  • For 7 days
  • Water Temperature
  • Weather Map
  • Weather Widgets
  • user-avatar
    Login

    Hourly Weather Lankaran

    Today, 25 May, Monday

    Time Temperature Precipitation Wind Pressure Humidity
    00:00 +6°C° 0 mm 2 mps 635 mmHg 94%
    01:00 +6°C° 0 mm 2 mps 635 mmHg 94%
    02:00 +5°C° 0 mm 2 mps 635 mmHg 94%
    03:00 +6°C° 0 mm 2 mps 634 mmHg 93%
    04:00 +6°C° 0 mm 2 mps 635 mmHg 93%
    05:00 +6°C° 0 mm 2 mps 635 mmHg 92%
    06:00 +5°C° 0 mm 3 mps 635 mmHg 91%
    07:00 +7°C° 0 mm 3 mps 635 mmHg 89%
    08:00 +7°C° 0 mm 3 mps 635 mmHg 86%
    09:00 +8°C° 0 mm 3 mps 635 mmHg 83%
    10:00 +9°C° 0 mm 3 mps 635 mmHg 79%
    11:00 +11°C° 0 mm 4 mps 635 mmHg 75%
    12:00 +12°C° 0 mm 4 mps 635 mmHg 70%
    13:00 +12°C° 0 mm 4 mps 634 mmHg 71%
    14:00 +12°C° 0 mm 4 mps 634 mmHg 71%
    15:00 +12°C° 0 mm 4 mps 633 mmHg 71%
    16:00 +11°C° 0.1 mm 3 mps 633 mmHg 74%
    17:00 +12°C° 0.1 mm 2 mps 632 mmHg 77%
    18:00 +11°C° 0.1 mm 1 mps 632 mmHg 80%
    19:00 +11°C° 0 mm 1 mps 632 mmHg 79%
    20:00 +9°C° 0 mm 0 mps 632 mmHg 79%
    21:00 +9°C° 0 mm 0 mps 632 mmHg 78%
    22:00 +10°C° 0 mm 1 mps 632 mmHg 75%
    23:00 +10°C° 0 mm 1 mps 632 mmHg 71%

    Tomorrow, 26 May, Tuesday

    Time Temperature Precipitation Wind Pressure Humidity
    00:00 +10°C° 0 mm 1 mps 632 mmHg 68%
    01:00 +8°C° 0 mm 2 mps 632 mmHg 65%
    02:00 +8°C° 0 mm 2 mps 632 mmHg 61%
    03:00 +8°C° 0 mm 2 mps 632 mmHg 58%
    04:00 +9°C° 0 mm 2 mps 633 mmHg 57%
    05:00 +10°C° 0 mm 2 mps 634 mmHg 55%
    06:00 +12°C° 0 mm 2 mps 634 mmHg 54%
    07:00 +14°C° 0 mm 2 mps 635 mmHg 50%
    08:00 +16°C° 0 mm 1 mps 636 mmHg 46%
    09:00 +19°C° 0 mm 1 mps 637 mmHg 42%
    10:00 +18°C° 0 mm 2 mps 637 mmHg 44%
    11:00 +19°C° 0 mm 3 mps 637 mmHg 45%
    12:00 +20°C° 0 mm 4 mps 638 mmHg 47%
    13:00 +19°C° 0 mm 4 mps 637 mmHg 50%
    14:00 +19°C° 0 mm 4 mps 637 mmHg 52%
    15:00 +19°C° 0 mm 4 mps 637 mmHg 55%
    16:00 +17°C° 0 mm 3 mps 637 mmHg 62%
    17:00 +14°C° 0 mm 3 mps 636 mmHg 69%
    18:00 +13°C° 0 mm 3 mps 636 mmHg 76%
    19:00 +12°C° 0 mm 2 mps 636 mmHg 77%
    20:00 +11°C° 0 mm 1 mps 636 mmHg 78%
    21:00 +10°C° 0 mm 1 mps 636 mmHg 80%
    22:00 +10°C° 0 mm 1 mps 636 mmHg 77%
    23:00 +10°C° 0 mm 1 mps 636 mmHg 74%

    Day after tomorrow, 27 May, Wednesday

    Time Temperature Precipitation Wind Pressure Humidity
    00:00 +8°C° 0 mm 0 mps 636 mmHg 71%
    01:00 +8°C° 0 mm 0 mps 636 mmHg 71%
    02:00 +8°C° 0 mm 0 mps 635 mmHg 71%
    03:00 +8°C° 0 mm 0 mps 635 mmHg 71%
    04:00 +9°C° 0 mm 0 mps 636 mmHg 69%
    05:00 +10°C° 0 mm 0 mps 636 mmHg 66%
    06:00 +11°C° 0 mm 0 mps 637 mmHg 63%
    07:00 +13°C° 0 mm 1 mps 638 mmHg 61%
    08:00 +15°C° 0 mm 1 mps 638 mmHg 59%
    09:00 +16°C° 0 mm 2 mps 639 mmHg 57%
    10:00 +17°C° 0 mm 2 mps 639 mmHg 56%
    11:00 +18°C° 0 mm 3 mps 639 mmHg 55%
    12:00 +19°C° 0 mm 3 mps 639 mmHg 55%
    13:00 +19°C° 0 mm 3 mps 638 mmHg 56%
    14:00 +19°C° 0 mm 3 mps 638 mmHg 57%
    15:00 +19°C° 0 mm 3 mps 638 mmHg 58%
    16:00 +18°C° 0 mm 2 mps 637 mmHg 62%
    17:00 +17°C° 0 mm 2 mps 637 mmHg 67%
    18:00 +16°C° 0 mm 1 mps 636 mmHg 71%
    19:00 +15°C° 0 mm 1 mps 636 mmHg 74%
    20:00 +14°C° 0 mm 1 mps 636 mmHg 76%
    21:00 +13°C° 0 mm 1 mps 636 mmHg 79%
    22:00 +13°C° 0 mm 1 mps 635 mmHg 78%
    23:00 +13°C° 0 mm 1 mps 635 mmHg 78%

    28 May, Thursday

    Time Temperature Precipitation Wind Pressure Humidity
    00:00 +13°C° 0 mm 1 mps 635 mmHg 77%
    01:00 +11°C° 0 mm 0 mps 634 mmHg 77%
    02:00 +11°C° 0 mm 0 mps 634 mmHg 77%
    03:00 +11°C° 0 mm 0 mps 634 mmHg 77%
    04:00 +12°C° 0 mm 0 mps 634 mmHg 74%
    05:00 +13°C° 0 mm 0 mps 635 mmHg 71%
    06:00 +15°C° 0 mm 0 mps 635 mmHg 68%
    07:00 +18°C° 0 mm 1 mps 636 mmHg 62%
    08:00 +20°C° 0 mm 1 mps 636 mmHg 56%
    09:00 +20°C° 0 mm 2 mps 637 mmHg 50%
    10:00 +21°C° 0 mm 2 mps 637 mmHg 50%
    11:00 +23°C° 0 mm 2 mps 637 mmHg 49%
    12:00 +24°C° 0 mm 3 mps 636 mmHg 49%
    13:00 +24°C° 0 mm 3 mps 636 mmHg 49%
    14:00 +24°C° 0 mm 3 mps 636 mmHg 50%
    15:00 +24°C° 0 mm 3 mps 635 mmHg 50%
    16:00 +23°C° 0 mm 2 mps 635 mmHg 56%
    17:00 +21°C° 0 mm 2 mps 634 mmHg 61%
    18:00 +21°C° 0 mm 1 mps 634 mmHg 67%
    19:00 +20°C° 0 mm 1 mps 634 mmHg 68%
    20:00 +19°C° 0 mm 1 mps 634 mmHg 68%
    21:00 +18°C° 0 mm 1 mps 633 mmHg 69%
    22:00 +16°C° 0 mm 1 mps 633 mmHg 68%
    23:00 +16°C° 0 mm 1 mps 633 mmHg 68%

    29 May, Friday

    Time Temperature Precipitation Wind Pressure Humidity
    00:00 +16°C° 0 mm 1 mps 632 mmHg 67%
    01:00 +16°C° 0 mm 1 mps 632 mmHg 67%
    02:00 +15°C° 0 mm 1 mps 632 mmHg 66%
    03:00 +15°C° 0 mm 1 mps 631 mmHg 66%
    04:00 +18°C° 0 mm 1 mps 632 mmHg 63%
    05:00 +17°C° 0 mm 0 mps 633 mmHg 61%
    06:00 +18°C° 0 mm 0 mps 633 mmHg 58%
    07:00 +22°C° 0 mm 1 mps 633 mmHg 53%
    08:00 +24°C° 0 mm 1 mps 634 mmHg 49%
    09:00 +26°C° 0 mm 2 mps 634 mmHg 44%
    10:00 +26°C° 0 mm 3 mps 634 mmHg 42%
    11:00 +27°C° 0 mm 4 mps 634 mmHg 40%
    12:00 +28°C° 0 mm 4 mps 634 mmHg 38%
    13:00 +27°C° 0.1 mm 4 mps 633 mmHg 40%
    14:00 +26°C° 0.1 mm 4 mps 632 mmHg 42%
    15:00 +23°C° 0.1 mm 4 mps 631 mmHg 45%
    16:00 +23°C° 0.1 mm 4 mps 631 mmHg 50%
    17:00 +22°C° 0.1 mm 3 mps 631 mmHg 55%
    18:00 +21°C° 0.1 mm 2 mps 631 mmHg 60%
    19:00 +20°C° 0 mm 2 mps 631 mmHg 54%
    20:00 +19°C° 0 mm 2 mps 631 mmHg 49%
    21:00 +18°C° 0 mm 2 mps 631 mmHg 44%
    22:00 +18°C° 0 mm 3 mps 630 mmHg 41%
    23:00 +18°C° 0 mm 3 mps 630 mmHg 37%

    30 May, Saturday

    Time Temperature Precipitation Wind Pressure Humidity
    00:00 +18°C° 0 mm 3 mps 630 mmHg 34%
    01:00 +18°C° 0 mm 3 mps 630 mmHg 33%
    02:00 +17°C° 0 mm 3 mps 630 mmHg 31%
    03:00 +17°C° 0 mm 3 mps 630 mmHg 30%
    04:00 +17°C° 0 mm 3 mps 630 mmHg 33%
    05:00 +17°C° 0 mm 3 mps 631 mmHg 37%
    06:00 +18°C° 0 mm 3 mps 631 mmHg 41%
    07:00 +20°C° 0 mm 3 mps 633 mmHg 38%
    08:00 +22°C° 0 mm 4 mps 634 mmHg 34%
    09:00 +25°C° 0 mm 5 mps 635 mmHg 31%
    10:00 +25°C° 0 mm 4 mps 635 mmHg 35%
    11:00 +25°C° 0 mm 4 mps 635 mmHg 39%
    12:00 +23°C° 0 mm 4 mps 635 mmHg 43%
    13:00 +22°C° 0 mm 4 mps 634 mmHg 51%
    14:00 +21°C° 0 mm 5 mps 634 mmHg 59%
    15:00 +19°C° 0 mm 5 mps 633 mmHg 67%
    16:00 +18°C° 0 mm 4 mps 633 mmHg 72%
    17:00 +16°C° 0 mm 3 mps 633 mmHg 77%
    18:00 +15°C° 0 mm 2 mps 633 mmHg 81%
    19:00 +14°C° 0 mm 2 mps 633 mmHg 84%
    20:00 +13°C° 0 mm 1 mps 633 mmHg 87%
    21:00 +12°C° 0 mm 1 mps 633 mmHg 89%
    22:00 +12°C° 0 mm 1 mps 634 mmHg 89%
    23:00 +12°C° 0 mm 1 mps 634 mmHg 89%
    Show more